EW6442 Weather Reports


Display with metric or nautical units.
time (UTC)temp
F
wind
direction
speed
MPH
gust
MPH
rain 1hr
in
rain 24hr
in
rain mn
in
humidity
%
barometer
mb
20260510175549 86 298 1.0 6.0 0.00 0.00 0.00 16 1018.6
20260510175045 84 330 2.0 10.0 0.00 0.00 0.00 17 1018.7
20260510174551 84 18 5.0 10.0 0.00 0.00 0.00 17 1018.7
20260510174044 85 246 2.0 10.0 0.00 0.00 0.00 17 1018.7
20260510173544 85 273 3.0 8.0 0.00 0.00 0.00 17 1018.7
20260510173044 85 227 1.0 8.0 0.00 0.00 0.00 16 1018.8
20260510172546 85 245 3.0 8.0 0.00 0.00 0.00 16 1018.8
20260510172043 84 36 0.0 8.0 0.00 0.00 0.00 17 1018.8
20260510171545 84 324 4.0 10.0 0.00 0.00 0.00 16 1018.9
20260510171046 84 270 2.0 10.0 0.00 0.00 0.00 15 1018.8
20260510170548 84 322 2.0 8.0 0.00 0.00 0.00 15 1018.8
20260510170047 84 15 3.0 8.0 0.00 0.00 0.00 14 1018.8
20260510165541 84 305 3.0 11.0 0.00 0.00 0.00 13 1018.7
20260510165040 84 267 4.0 11.0 0.00 0.00 0.00 13 1018.9
20260510164538 84 301 3.0 9.0 0.00 0.00 0.00 14 1018.9
20260510164038 84 321 2.0 6.0 0.00 0.00 0.00 15 1018.9
20260510163537 84 299 2.0 7.0 0.00 0.00 0.00 15 1018.8
20260510163036 83 267 1.0 6.0 0.00 0.00 0.00 16 1018.7
20260510162534 82 347 2.0 6.0 0.00 0.00 0.00 15 1018.7
20260510162035 82 24 2.0 6.0 0.00 0.00 0.00 17 1018.7
20260510161533 82 354 3.0 6.0 0.00 0.00 0.00 16 1018.7
20260510161035 82 103 2.0 5.0 0.00 0.00 0.00 18 1018.7
20260510160532 82 29 2.0 4.0 0.00 0.00 0.00 23 1018.6
20260510160030 82 359 2.0 4.0 0.00 0.00 0.00 25 1018.5
20260510155528 83 278 1.0 3.0 0.00 0.00 0.00 25 1018.5
20260510155026 83 278 0.0 3.0 0.00 0.00 0.00 30 1018.5
20260510154527 82 243 1.0 3.0 0.00 0.00 0.00 30 1018.4
20260510154026 82 144 0.0 3.0 0.00 0.00 0.00 31 1018.3
20260510153525 82 264 0.0 3.0 0.00 0.00 0.00 31 1018.3
20260510153022 81 265 1.0 3.0 0.00 0.00 0.00 32 1018.3
20260510152524 80 311 1.0 3.0 0.00 0.00 0.00 32 1018.2
20260510152024 80 310 0.0 4.0 0.00 0.00 0.00 33 1018.2
20260510151520 80 310 2.0 4.0 0.00 0.00 0.00 33 1018.4
20260510151018 79 47 0.0 2.0 0.00 0.00 0.00 34 1018.4
20260510150518 79 47 0.0 3.0 0.00 0.00 0.00 35 1018.5
20260510150017 78 47 1.0 3.0 0.00 0.00 0.00 35 1018.6
20260510145513 77 47 0.0 2.0 0.00 0.00 0.00 37 1018.5
20260510145011 77 47 0.0 3.0 0.00 0.00 0.00 38 1018.5
20260510144512 76 47 1.0 3.0 0.00 0.00 0.00 37 1018.5
20260510144009 76 47 0.0 3.0 0.00 0.00 0.00 38 1018.6
20260510143508 76 47 1.0 3.0 0.00 0.00 0.00 40 1018.6
20260510143016 75 47 0.0 4.0 0.00 0.00 0.00 38 1018.5
20260510142512 75 47 0.0 4.0 0.00 0.00 0.00 39 1018.6
20260510142007 76 146 0.0 2.0 0.00 0.00 0.00 39 1018.5
20260510141506 75 145 0.0 1.0 0.00 0.00 0.00 41 1018.6
20260510141003 75 146 0.0 1.0 0.00 0.00 0.00 41 1018.6
20260510140507 75 147 0.0 2.0 0.00 0.00 0.00 43 1018.5
20260510140002 74 145 0.0 2.0 0.00 0.00 0.00 43 1018.5
20260510135503 73 146 0.0 2.0 0.00 0.00 0.00 44 1018.5
20260510135058 73 147 0.0 2.0 0.00 0.00 0.00 44 1018.5
20260510134556 73 147 0.0 1.0 0.00 0.00 0.00 46 1018.4
20260510134056 72 145 0.0 1.0 0.00 0.00 0.00 46 1018.4
20260510133554 71 147 0.0 3.0 0.00 0.00 0.00 47 1018.4
20260510133053 70 147 0.0 3.0 0.00 0.00 0.00 48 1018.4
20260510132052 68 146 0.0 2.0 0.00 0.00 0.00 52 1018.3
20260510131548 67 145 0.0 0.0 0.00 0.00 0.00 54 1018.3
20260510131048 67 146 0.0 1.0 0.00 0.00 0.00 55 1018.2
20260510130547 67 146 0.0 2.0 0.00 0.00 0.00 55 1018.2
20260510130046 67 147 0.0 2.0 0.00 0.00 0.00 56 1018.1
20260510125545 66 146 0.0 2.0 0.00 0.00 0.00 58 1018.1
20260510125042 66 147 0.0 1.0 0.00 0.00 0.00 58 1017.9
20260510124550 66 145 0.0 2.0 0.00 0.00 0.00 60 1018.0
20260510124040 65 146 0.0 2.0 0.00 0.00 0.00 61 1017.9
20260510123541 64 147 0.0 2.0 0.00 0.00 0.00 61 1017.9
20260510123039 64 146 0.0 2.0 0.00 0.00 0.00 61 1017.8
20260510122539 64 147 0.0 0.0 0.00 0.00 0.00 61 1017.8
20260510122039 63 147 0.0 0.0 0.00 0.00 0.00 60 1017.7
20260510121537 63 146 0.0 2.0 0.00 0.00 0.00 61 1017.6
20260510121036 63 146 0.0 2.0 0.00 0.00 0.00 62 1017.6
20260510120538 63 145 1.0 3.0 0.00 0.00 0.00 63 1017.5
20260510120036 63 147 0.0 3.0 0.00 0.00 0.00 64 1017.4
20260510115534 63 103 1.0 3.0 0.00 0.00 0.00 66 1017.3
20260510115034 63 103 0.0 4.0 0.00 0.00 0.00 68 1017.3
20260510114531 63 103 0.0 4.0 0.00 0.00 0.00 68 1017.3
20260510114030 63 340 0.0 1.0 0.00 0.00 0.00 72 1017.4
20260510113529 63 340 0.0 1.0 0.00 0.00 0.00 73 1017.3
20260510113029 63 340 0.0 1.0 0.00 0.00 0.00 74 1017.3
20260510112531 63 340 0.0 1.0 0.00 0.00 0.00 74 1017.3
20260510112029 63 340 0.0 1.0 0.00 0.00 0.00 74 1017.3
20260510111528 63 340 0.0 0.0 0.00 0.00 0.00 74 1017.3
20260510111027 63 340 0.0 0.0 0.00 0.00 0.00 74 1017.3
20260510110529 63 340 0.0 1.0 0.00 0.00 0.00 73 1017.3
20260510110035 63 340 0.0 1.0 0.00 0.00 0.00 74 1017.3
20260510105526 63 340 0.0 1.0 0.00 0.00 0.00 74 1017.2
20260510105024 63 340 0.0 3.0 0.00 0.00 0.00 74 1017.2
20260510104524 63 340 1.0 3.0 0.00 0.00 0.00 74 1017.2
20260510104025 64 340 0.0 1.0 0.00 0.00 0.00 74 1017.2
20260510103525 64 340 0.0 1.0 0.00 0.00 0.00 73 1017.3
20260510103023 64 340 0.0 0.0 0.00 0.00 0.00 73 1017.3
20260510102523 64 340 0.0 1.0 0.00 0.00 0.00 73 1017.2
20260510102022 64 340 0.0 1.0 0.00 0.00 0.00 73 1017.1
20260510101522 63 340 0.0 1.0 0.00 0.00 0.00 74 1017.1
20260510101021 63 340 0.0 0.0 0.00 0.00 0.00 73 1017.1
20260510100524 63 340 0.0 0.0 0.00 0.00 0.00 72 1017.1
20260510100021 63 340 0.0 0.0 0.00 0.00 0.00 72 1017.0
20260510095520 64 340 0.0 0.0 0.00 0.00 0.00 70 1016.9
20260510095021 64 340 0.0 0.0 0.00 0.00 0.00 71 1017.0
20260510094537 64 340 0.0 0.0 0.00 0.00 0.00 71 1017.1
20260510094015 64 340 0.0 0.0 0.00 0.00 0.00 71 1017.0
20260510093514 64 340 0.0 2.0 0.00 0.00 0.00 71 1017.0
20260510093015 64 340 0.0 2.0 0.00 0.00 0.00 70 1017.1
20260510092517 64 340 0.0 2.0 0.00 0.00 0.00 70 1017.0
20260510092012 64 340 0.0 2.0 0.00 0.00 0.00 69 1017.1
20260510091520 65 340 0.0 2.0 0.00 0.00 0.00 68 1016.9
20260510091011 65 339 1.0 3.0 0.00 0.00 0.00 68 1016.9
20260510090511 65 340 1.0 3.0 0.00 0.00 0.00 69 1016.8
20260510090014 65 340 0.0 2.0 0.00 0.00 0.00 69 1016.7
20260510085510 65 340 0.0 3.0 0.00 0.00 0.00 69 1016.7
20260510085012 65 359 1.0 3.0 0.00 0.00 0.00 70 1016.7
20260510084507 65 340 0.0 3.0 0.00 0.00 0.00 70 1016.6
20260510084007 65 340 0.0 0.0 0.00 0.00 0.00 72 1016.7
20260510083507 65 340 0.0 0.0 0.00 0.00 0.00 73 1016.7
20260510083007 65 340 0.0 0.0 0.00 0.00 0.00 73 1016.7
20260510082505 65 339 0.0 0.0 0.00 0.00 0.00 70 1016.7
20260510082005 65 340 0.0 2.0 0.00 0.00 0.00 68 1016.7
20260510081505 65 340 0.0 2.0 0.00 0.00 0.00 68 1016.8
20260510081005 65 340 0.0 0.0 0.00 0.00 0.00 68 1016.7
20260510080504 65 340 0.0 1.0 0.00 0.00 0.00 68 1016.8
20260510080004 65 340 0.0 1.0 0.00 0.00 0.00 68 1016.7
20260510075503 65 340 0.0 1.0 0.00 0.00 0.00 68 1016.8
20260510075003 65 340 0.0 1.0 0.00 0.00 0.00 68 1016.9
20260510074601 65 359 0.0 2.0 0.00 0.00 0.00 68 1016.9
20260510074101 65 340 0.0 2.0 0.00 0.00 0.00 69 1016.9
20260510073600 65 340 0.0 1.0 0.00 0.00 0.00 69 1017.0
20260510073100 65 359 0.0 3.0 0.00 0.00 0.00 69 1016.9
20260510072559 65 340 0.0 3.0 0.00 0.00 0.00 70 1016.8
20260510072059 66 340 1.0 3.0 0.00 0.00 0.00 70 1016.8
20260510071558 66 340 0.0 2.0 0.00 0.00 0.00 71 1016.8
20260510071056 66 340 0.0 2.0 0.00 0.00 0.00 71 1016.8
20260510070556 66 340 0.0 1.0 0.00 0.00 0.00 72 1017.0
20260510070056 66 340 0.0 3.0 0.00 0.00 0.00 72 1016.9
20260510065559 66 340 0.0 3.0 0.00 0.00 0.00 72 1016.9
20260510065056 66 340 1.0 3.0 0.00 0.00 0.00 72 1016.9
20260510064552 66 340 1.0 3.0 0.00 0.00 0.00 73 1016.9
20260510064051 67 340 1.0 3.0 0.00 0.00 0.00 73 1016.8
20260510063555 67 340 0.0 3.0 0.00 0.00 0.00 73 1016.9
20260510063051 67 340 0.0 2.0 0.00 0.00 0.00 74 1016.8
20260510062550 67 340 1.0 2.0 0.00 0.00 0.00 74 1016.9
20260510062049 67 340 0.0 2.0 0.00 0.00 0.00 74 1016.9
20260510061552 67 340 1.0 3.0 0.00 0.00 0.00 74 1017.0
20260510061048 67 340 1.0 2.0 0.00 0.00 0.00 74 1016.9
20260510060548 67 340 1.0 3.0 0.00 0.00 0.00 74 1017.1
20260510060048 67 340 1.0 4.0 0.00 0.00 0.00 73 1017.0
20260510055546 67 340 1.0 4.0 0.00 0.00 0.00 73 1017.0
20260510055046 68 340 2.0 4.0 0.00 0.00 0.00 73 1017.1
20260510054545 68 340 2.0 4.0 0.00 0.00 0.00 73 1017.2
20260510054042 68 340 1.0 4.0 0.00 0.00 0.00 73 1017.1
20260510053541 68 340 2.0 3.0 0.00 0.00 0.00 73 1017.2
20260510053055 68 340 1.0 3.0 0.00 0.00 0.00 72 1017.3
20260510052540 68 340 0.0 2.0 0.00 0.00 0.00 72 1017.2
20260510052040 69 340 1.0 2.0 0.00 0.00 0.00 72 1017.2
20260510051547 69 359 0.0 2.0 0.00 0.00 0.00 71 1017.2
20260510051039 69 340 0.0 2.0 0.00 0.00 0.00 71 1017.3
20260510050538 69 359 0.0 3.0 0.00 0.00 0.00 71 1017.3
20260510050037 69 340 1.0 3.0 0.00 0.00 0.00 71 1017.4
20260510045538 69 340 0.0 0.0 0.00 0.00 0.00 71 1017.4
20260510045037 69 340 0.0 0.0 0.00 0.00 0.00 71 1017.4
20260510044537 69 340 0.0 0.0 0.00 0.00 0.00 71 1017.4
20260510044034 69 340 0.0 2.0 0.00 0.00 0.00 71 1017.4
20260510043533 69 340 0.0 2.0 0.00 0.00 0.00 71 1017.4
20260510043042 69 340 1.0 3.0 0.00 0.00 0.00 71 1017.3
20260510042533 69 359 0.0 3.0 0.00 0.00 0.00 71 1017.3
20260510042031 69 340 0.0 2.0 0.00 0.00 0.00 71 1017.2
20260510041531 69 340 0.0 2.0 0.00 0.00 0.00 71 1017.0
20260510041030 69 340 0.0 2.0 0.00 0.00 0.00 71 1016.9
20260510040529 69 340 1.0 3.0 0.00 0.00 0.00 71 1016.8
20260510040038 69 340 1.0 4.0 0.00 0.00 0.00 71 1016.7
20260510035529 69 340 1.0 4.0 0.00 0.00 0.00 71 1016.8
20260510035028 69 339 2.0 5.0 0.00 0.00 0.00 70 1016.8
20260510034527 69 335 2.0 5.0 0.00 0.00 0.00 70 1016.8
20260510034024 69 330 2.0 5.0 0.00 0.00 0.00 69 1016.7
20260510033527 70 327 1.0 3.0 0.00 0.00 0.00 68 1016.7
20260510033022 70 326 1.0 3.0 0.00 0.00 0.00 68 1016.6
20260510032522 70 326 1.0 3.0 0.00 0.00 0.00 69 1016.7
20260510032022 70 327 1.0 4.0 0.00 0.00 0.00 69 1016.8
20260510031523 70 326 1.0 5.0 0.00 0.00 0.00 69 1016.7
20260510031020 70 343 2.0 5.0 0.00 0.00 0.00 68 1016.6
20260510030522 71 319 1.0 4.0 0.00 0.00 0.00 67 1016.7
20260510030019 71 318 1.0 4.0 0.00 0.00 0.00 67 1016.6
20260510025518 71 315 2.0 4.0 0.00 0.00 0.00 66 1016.6
20260510025017 71 316 2.0 4.0 0.00 0.00 0.00 65 1016.7
20260510024517 71 324 2.0 4.0 0.00 0.00 0.00 65 1016.5
20260510024045 71 322 1.0 4.0 0.00 0.00 0.00 64 1016.5
20260510023544 71 316 1.0 4.0 0.00 0.00 0.00 64 1016.5
20260510023043 71 325 2.0 4.0 0.00 0.00 0.00 63 1016.5
20260510022543 72 326 1.0 5.0 0.00 0.00 0.00 63 1016.4
20260510022042 72 314 2.0 4.0 0.00 0.00 0.00 62 1016.4
20260510021547 72 288 1.0 4.0 0.00 0.00 0.00 62 1016.3
20260510021037 72 268 1.0 4.0 0.00 0.00 0.00 62 1016.3
20260510020536 72 322 1.0 9.0 0.00 0.00 0.00 61 1016.3
20260510020036 72 25 3.0 9.0 0.00 0.00 0.00 61 1016.2
20260510015534 73 32 2.0 9.0 0.00 0.00 0.00 60 1016.1
20260510015032 73 13 4.0 9.0 0.00 0.00 0.00 58 1015.8
20260510014534 74 350 2.0 6.0 0.00 0.00 0.00 56 1015.7
20260510014031 74 335 2.0 9.0 0.00 0.00 0.00 55 1015.6
20260510013529 75 359 4.0 11.0 0.00 0.00 0.00 53 1015.6
20260510013028 75 359 5.0 11.0 0.00 0.00 0.00 50 1015.5
20260510012529 76 48 3.0 11.0 0.00 0.00 0.00 48 1015.4
20260510012025 76 316 5.0 12.0 0.00 0.00 0.00 46 1015.4
20260510011533 77 349 7.0 11.0 0.00 0.00 0.00 45 1015.3
20260510011021 78 15 5.0 10.0 0.00 0.00 0.00 41 1015.3
20260510010518 81 48 5.0 10.0 0.00 0.00 0.00 34 1015.2
20260510010019 83 77 4.0 15.0 0.00 0.00 0.00 11 1015.1
20260510005516 83 60 6.0 15.0 0.00 0.00 0.00 10 1015.0
20260510005015 83 46 6.0 15.0 0.00 0.00 0.00 9 1014.9
20260510004522 83 48 5.0 18.0 0.00 0.00 0.00 9 1014.8
20260510004016 83 66 9.0 18.0 0.00 0.00 0.00 9 1014.9
20260510003514 84 112 6.0 17.0 0.00 0.00 0.00 9 1014.7
20260510003014 84 65 10.0 20.0 0.00 0.00 0.00 10 1014.6
20260510002514 85 75 8.0 20.0 0.00 0.00 0.00 10 1014.6
20260510002014 85 56 4.0 12.0 0.00 0.00 0.00 10 1014.6
20260510001514 85 45 2.0 13.0 0.00 0.00 0.00 10 1014.5
20260510001014 85 113 5.0 14.0 0.00 0.00 0.00 10 1014.7
20260510000511 85 64 5.0 14.0 0.00 0.00 0.00 10 1014.5
20260510000010 85 40 3.0 14.0 0.00 0.00 0.00 10 1014.5
20260509235513 85 43 4.0 15.0 0.00 0.00 0.00 10 1014.5
20260509235009 85 37 7.0 15.0 0.00 0.00 0.00 10 1014.5
20260509234509 85 76 6.0 14.0 0.00 0.00 0.00 11 1014.4
20260509234013 85 73 5.0 11.0 0.00 0.00 0.00 10 1014.3
20260509233509 86 33 5.0 13.0 0.00 0.00 0.00 11 1014.4
20260509233008 86 73 6.0 13.0 0.00 0.00 0.00 10 1014.2
20260509232508 86 56 4.0 11.0 0.00 0.00 0.00 11 1014.1
20260509232007 86 66 4.0 14.0 0.00 0.00 0.00 11 1014.3
20260509231507 86 67 8.0 16.0 0.00 0.00 0.00 11 1014.2
20260509231011 86 58 2.0 16.0 0.00 0.00 0.00 11 1014.2
20260509230540 85 59 2.0 13.0 0.00 0.00 0.00 12 1014.2
20260509230037 85 77 7.0 13.0 0.00 0.00 0.00 11 1014.2
20260509225537 86 70 7.0 13.0 0.00 0.00 0.00 12 1014.2
20260509225034 86 68 3.0 13.0 0.00 0.00 0.00 12 1014.4
20260509224533 86 81 6.0 13.0 0.00 0.00 0.00 12 1014.2
20260509224033 85 354 1.0 12.0 0.00 0.00 0.00 13 1014.3
20260509223502 84 97 2.0 12.0 0.00 0.00 0.00 14 1014.4
20260509223002 84 77 5.0 17.0 0.00 0.00 0.00 13 1014.4
20260509222501 84 79 4.0 16.0 0.00 0.00 0.00 14 1014.4
20260509222100 85 100 5.0 13.0 0.00 0.00 0.00 13 1014.5
20260509221600 85 37 6.0 14.0 0.00 0.00 0.00 13 1014.5
20260509221059 84 43 6.0 14.0 0.00 0.00 0.00 14 1014.5
20260509220533 83 71 7.0 14.0 0.00 0.00 0.00 14 1014.6
20260509220033 84 50 5.0 14.0 0.00 0.00 0.00 15 1014.4
20260509215532 83 4 8.0 14.0 0.00 0.01 0.00 15 1014.5
20260509215027 84 83 4.0 14.0 0.00 0.01 0.00 15 1014.5
20260509214527 84 90 4.0 13.0 0.00 0.01 0.00 15 1014.5
20260509214026 85 17 5.0 13.0 0.00 0.01 0.00 15 1014.6
20260509213625 84 105 2.0 13.0 0.00 0.01 0.00 16 1014.5
20260509213055 84 43 5.0 16.0 0.00 0.01 0.00 16 1014.7
20260509212555 84 78 3.0 19.0 0.00 0.01 0.00 16 1014.7
20260509212054 85 68 10.0 19.0 0.00 0.01 0.00 16 1014.8
20260509211554 85 74 5.0 17.0 0.00 0.01 0.00 16 1014.8
20260509211053 84 41 7.0 17.0 0.00 0.01 0.00 17 1015.0
20260509210600 84 71 5.0 18.0 0.00 0.01 0.00 17 1014.8
20260509210559 84 56 4.0 18.0 0.00 0.01 0.00 17 1014.8
20260509210025 85 68 9.0 18.0 0.00 0.01 0.00 16 1014.8
20260509205524 85 35 6.0 15.0 0.00 0.04 0.00 16 1014.8
20260509205020 85 59 6.0 14.0 0.00 0.04 0.00 17 1014.9
20260509204519 85 75 6.0 16.0 0.00 0.04 0.00 18 1015.0
20260509204019 84 26 8.0 16.0 0.00 0.04 0.00 18 1015.1
20260509203518 84 45 6.0 11.0 0.00 0.04 0.00 17 1015.1
20260509203058 84 8 5.0 12.0 0.00 0.04 0.00 17 1015.1
20260509202548 85 76 5.0 17.0 0.00 0.04 0.00 17 1015.1
20260509202046 84 61 7.0 17.0 0.00 0.04 0.00 16 1015.1
20260509201545 84 48 6.0 13.0 0.00 0.04 0.00 17 1015.2
20260509201044 84 359 5.0 17.0 0.00 0.04 0.00 17 1015.1
20260509200544 84 87 7.0 17.0 0.00 0.04 0.00 17 1015.1
20260509200030 84 291 6.0 14.0 0.00 0.04 0.00 17 1015.1
20260509195048 83 346 6.0 17.0 0.00 0.06 0.00 17 1015.2
20260509194550 84 67 5.0 12.0 0.00 0.06 0.00 15 1015.3
20260509194048 84 33 3.0 13.0 0.00 0.06 0.00 20 1015.2
20260509193545 85 72 4.0 13.0 0.00 0.06 0.00 19 1015.2
20260509193043 85 37 4.0 11.0 0.00 0.06 0.00 19 1015.2
20260509192541 84 72 2.0 17.0 0.00 0.06 0.00 20 1015.2
20260509192043 82 359 7.0 17.0 0.00 0.06 0.00 30 1015.0
20260509191554 82 322 4.0 14.0 0.00 0.06 0.00 36 1015.1
20260509191035 82 335 5.0 14.0 0.00 0.06 0.00 37 1015.4
20260509190538 81 359 3.0 9.0 0.00 0.06 0.00 39 1015.3
20260509190034 81 52 4.0 7.0 0.00 0.06 0.00 38 1015.5
20260509185533 81 14 3.0 10.0 0.00 0.06 0.06 39 1015.7
20260509185032 81 330 2.0 11.0 0.00 0.06 0.06 40 1015.9
20260509184544 81 346 3.0 10.0 0.00 0.06 0.06 41 1015.9
20260509184031 81 341 5.0 10.0 0.00 0.06 0.06 42 1016.0
20260509183531 80 320 2.0 10.0 0.00 0.06 0.06 42 1016.0
20260509183043 80 345 4.0 10.0 0.00 0.06 0.06 43 1016.0
20260509182531 80 345 3.0 9.0 0.00 0.06 0.06 44 1016.0
20260509182031 80 280 1.0 10.0 0.00 0.06 0.06 44 1016.1
20260509181531 79 291 3.0 12.0 0.00 0.06 0.06 45 1016.2
20260509181001 79 318 5.0 12.0 0.00 0.06 0.06 47 1016.2
20260509180601 79 345 3.0 10.0 0.00 0.06 0.06 48 1016.3
20260509180106 79 354 3.0 11.0 0.00 0.06 0.06 46 1016.3